Regional Weather Roundup
Issued by NWS Sioux Falls, SD

Home | Current Version | Previous Version | Text Only | Print | Product List | Glossary Off
Versions: 1 2 3 4 5 6 7 8 9 10 11 12 13 14 15 16 17 18 19 20 21 22 23 24 25 26 27 28 29 30 31 32 33 34 35 36 37 38 39 40 41 42 43 44 45 46 47 48 49 50

000
ASUS43 KFSD 190410
RWRFSD

WEATHER ROUNDUP FOR SE SOUTH DAKOTA/SW MINNESOTA/NW IOWA
NATIONAL WEATHER SERVICE SIOUX FALLS SD
1100 PM CDT SAT APR 18 2015

NOTE: "FAIR" INDICATES FEW OR NO CLOUDS BELOW 12,000 FEET WITH NO
SIGNIFICANT WEATHER AND OR OBSTRUCTIONS TO VISIBILITY.


SDZ038>040-050-052>070-190500-
SOUTHEAST SOUTH DAKOTA

CITY           SKY/WX    TMP DP  RH WIND       PRES   REMARKS
BROOKINGS      CLOUDY    55  54  94 S7        29.80F
CHAMBERLAIN    LGT RAIN  52  52 100 NW5       29.83S
HURON          CLOUDY    54  54 100 CALM      29.79F FOG
MADISON        CLOUDY    54  54 100 E6        29.79F
MITCHELL       CLOUDY    56  55  97 W3        29.80F FOG
SIOUX FALLS    CLOUDY    57  55  93 SE6       29.80F
WINNER         CLOUDY    53  50  89 NW12      29.85R FOG
YANKTON        CLOUDY    55  54  94 E3        29.79F VSB 1/4
$$

MNZ071-072-080-081-089-090-097-098-190500-
SOUTHWEST MINNESOTA

CITY           SKY/WX    TMP DP  RH WIND       PRES   REMARKS
FAIRMONT       CLOUDY    55  45  67 SE16      29.82F
JACKSON        LGT RAIN  55  54  94 SE10      29.83F
LUVERNE        CLOUDY    55  54  94 SE9       29.81F
MARSHALL       CLOUDY    55  50  82 SE9       29.80F
MONTEVIDEO     LGT RAIN  54  54 100 SE10      29.81F
PIPESTONE      DRIZZLE   55  54  94 SE8       29.80F
REDWOOD FALLS  LGT RAIN  57  55  93 SE16      29.81F
TRACY          RAIN      56  56  97 S8        29.82F
WORTHINGTON    CLOUDY    54  52  94 SE8       29.83F
$$

IAZ001>003-012>014-020>022-031-032-NEZ013-014-SDZ071-190500-
NORTHWEST IOWA

CITY           SKY/WX    TMP DP  RH WIND       PRES   REMARKS
CHEROKEE       DRIZZLE   55  55 100 E5        29.82F
DENISON        CLOUDY    57  57 100 NE5       29.80F
ESTHERVILLE    LGT RAIN  56  55  97 SE12      29.81F FOG
LE MARS        CLOUDY    57  57 100 SE6       29.82F
ORANGE CITY    CLOUDY   N/A N/A N/A SE3       29.82F
SHELDON        CLOUDY    55  55 100 SE10G16   29.81F FOG
SIOUX CITY     MOCLDY    55  52  89 SE6       29.81S
SPENCER        LGT RAIN  56  54  93 S5        29.82F FOG
STORM LAKE     CLOUDY    55  55 100 CALM      29.84F
$$

ABBREVIATIONS USED IN REMARKS
   TC - TEMPERATURE IN CELSIUS
  WCI - WIND CHILL INDEX
   HX - HEAT INDEX
  VSB - VISIBILITY




USA.gov is the U.S. government's official web portal to all federal, state and local government web resources and services.